Location: Newark
(48.1281°N, 2.1556°W)
Time: 01:31:25
(UTC+00:00)

Envisat - Visible Passes

Search period start: 20 November 2019 00:00
Search period end: 30 November 2019 00:00
Orbit: 764 x 766 km, 98.1° (Epoch: 19 November)

Date Brightness Start Highest point End Pass type
(mag) Time Alt. Az. Time Alt. Az. Time Alt. Az.
20 Nov 6.5 05:27:21 10° ENE 05:28:05 10° E 05:28:49 10° E visible
20 Nov 3.5 18:21:04 10° S 18:26:04 61° WSW 18:31:08 10° NNW visible
21 Nov 4.8 06:26:24 10° NNE 06:31:05 36° E 06:35:44 10° SSE visible
21 Nov 2.9 17:44:17 10° SSE 17:49:18 67° ENE 17:54:22 10° N visible
21 Nov 5.7 19:25:23 10° SW 19:28:49 18° W 19:32:17 10° NW visible
22 Nov 5.9 05:50:32 10° NE 05:53:57 18° E 05:57:22 10° SE visible
22 Nov 3.6 17:08:11 10° SE 17:12:43 34° ENE 17:17:16 10° N visible
22 Nov 4.5 18:47:02 10° SSW 18:51:42 36° W 18:56:24 10° NNW visible
23 Nov 3.7 06:51:39 10° NNE 06:56:43 60° E 07:01:43 10° S visible
23 Nov 3.2 18:09:43 10° S 18:14:47 75° WSW 18:19:54 10° NNW visible
23 Nov 6.2 19:53:46 10° W 19:54:42 10° W 19:55:37 10° WNW visible
24 Nov 5.2 06:15:18 10° NNE 06:19:44 29° E 06:24:08 10° SSE visible
24 Nov 3.1 17:33:07 10° SSE 17:38:04 54° ENE 17:43:01 10° N visible
24 Nov 5.4 19:13:29 10° SW 19:17:25 22° W 19:21:23 10° NW visible
25 Nov 6.1 05:39:49 10° NE 05:42:33 14° E 05:45:16 10° ESE visible
25 Nov 3.8 16:57:15 10° ESE 17:01:32 28° ENE 17:05:49 10° N visible
25 Nov 4.1 18:35:31 10° S 18:40:22 45° W 18:45:15 10° NNW visible
26 Nov 4.2 06:40:27 10° NNE 06:45:24 48° E 06:50:18 10° S visible
26 Nov 2.9 17:58:26 10° SSE 18:03:30 89° E 18:08:37 10° NNW visible
26 Nov 6.0 19:40:49 10° WSW 19:43:15 13° W 19:45:41 10° WNW visible
27 Nov 5.5 06:04:16 10° NE 06:08:21 24° E 06:12:25 10° SE visible
27 Nov 3.3 17:22:02 10° SE 17:26:50 44° ENE 17:31:40 10° N visible
27 Nov 5.0 19:01:45 10° SSW 19:06:02 27° W 19:10:22 10° NW visible
28 Nov 6.3 05:29:30 10° ENE 05:31:06 11° E 05:32:42 10° ESE visible
28 Nov 4.0 16:46:24 10° ESE 16:50:22 23° ENE 16:54:20 10° N visible
28 Nov 3.7 18:24:04 10° S 18:29:03 56° W 18:34:03 10° NNW visible
29 Nov 4.6 06:29:17 10° NNE 06:34:03 39° E 06:38:48 10° SSE visible
29 Nov 2.9 17:47:11 10° SSE 17:52:14 73° ENE 17:57:19 10° N visible
29 Nov 5.8 19:28:36 10° SW 19:31:49 17° W 19:35:02 10° NW visible
